contact:dominique.lefevre@mio.osupytheas.fr, maurice.libes@osupytheas.fr, didier.mallarino@osupytheas.fr
Project:EMSO http://www.emso-fr.org/EMSO-France
Depth: 2436.0 m
Title:EMSO Ligure Ouest : Data MII capteur CSTAR
DateTime,Latitude,Longitude,Instrument_Serial,Reference_Counts,Signal_Counts,Corrected_Signal_raw_counts,Calculated_Beam_c_inverse_meters,Internal_thermistor_counts
DateTime,Latitude,Longitude,Instrument_Serial,Reference_Counts,Signal_Counts,Corrected_Signal_raw_counts,Calculated_Beam_c_inverse_meters,Internal_thermistor_counts
2021-12-03T00:01:34,42.805,6.029,CST-1368DR,5048,6564,13903,0.465,551
2021-12-03T00:04:36,42.805,6.029,CST-1368DR,5048,6562,13900,0.466,551
2021-12-03T00:07:37,42.805,6.029,CST-1368DR,5048,6563,13902,0.465,551
2021-12-03T00:10:39,42.805,6.029,CST-1368DR,5048,6563,13901,0.465,551
2021-12-03T00:13:40,42.805,6.029,CST-1368DR,5048,6563,13902,0.465,551
2021-12-03T00:16:42,42.805,6.029,CST-1368DR,5048,6563,13902,0.465,551
2021-12-03T00:19:43,42.805,6.029,CST-1368DR,5048,6563,13902,0.465,551
2021-12-03T00:22:45,42.805,6.029,CST-1368DR,5048,6564,13903,0.465,551
2021-12-03T00:25:47,42.805,6.029,CST-1368DR,5048,6563,13902,0.465,551
2021-12-03T00:28:48,42.805,6.029,CST-1368DR,5048,6563,13902,0.465,551
2021-12-03T00:31:50,42.805,6.029,CST-1368DR,5048,6563,13902,0.465,551
2021-12-03T00:34:51,42.805,6.029,CST-1368DR,5048,6562,13898,0.466,551
2021-12-03T00:37:53,42.805,6.029,CST-1368DR,5048,6563,13902,0.465,551
2021-12-03T00:40:55,42.805,6.029,CST-1368DR,5048,6563,13902,0.465,551
2021-12-03T00:43:56,42.805,6.029,CST-1368DR,5048,6563,13902,0.465,551
2021-12-03T00:46:58,42.805,6.029,CST-1368DR,5048,6563,13902,0.465,551
2021-12-03T00:49:59,42.805,6.029,CST-1368DR,5048,6563,13902,0.465,551
2021-12-03T00:53:01,42.805,6.029,CST-1368DR,5048,6563,13902,0.465,551
2021-12-03T00:56:02,42.805,6.029,CST-1368DR,5048,6563,13902,0.465,550
2021-12-03T00:59:04,42.805,6.029,CST-1368DR,5048,6563,13901,0.465,551
2021-12-03T01:02:06,42.805,6.029,CST-1368DR,5048,6563,13902,0.465,551
2021-12-03T01:05:07,42.805,6.029,CST-1368DR,5048,6563,13902,0.465,551
2021-12-03T01:08:09,42.805,6.029,CST-1368DR,5048,6562,13900,0.466,551
2021-12-03T01:11:10,42.805,6.029,CST-1368DR,5048,6563,13901,0.465,551
2021-12-03T01:14:12,42.805,6.029,CST-1368DR,5048,6562,13900,0.466,550
2021-12-03T01:17:13,42.805,6.029,CST-1368DR,5048,6563,13902,0.465,551
2021-12-03T01:20:15,42.805,6.029,CST-1368DR,5048,6563,13902,0.465,551
2021-12-03T01:23:17,42.805,6.029,CST-1368DR,5048,6562,13900,0.466,551
2021-12-03T01:26:18,42.805,6.029,CST-1368DR,5048,6563,13902,0.465,551
2021-12-03T01:29:20,42.805,6.029,CST-1368DR,5048,6563,13902,0.465,551
2021-12-03T01:32:21,42.805,6.029,CST-1368DR,5048,6563,13902,0.465,551
2021-12-03T01:35:23,42.805,6.029,CST-1368DR,5048,6563,13901,0.465,550
2021-12-03T01:38:25,42.805,6.029,CST-1368DR,5048,6563,13901,0.465,551
2021-12-03T01:41:26,42.805,6.029,CST-1368DR,5048,6562,13900,0.466,551
2021-12-03T01:44:28,42.805,6.029,CST-1368DR,5048,6563,13901,0.465,551
2021-12-03T01:47:29,42.805,6.029,CST-1368DR,5048,6562,13899,0.466,551
2021-12-03T01:50:31,42.805,6.029,CST-1368DR,5048,6561,13898,0.466,551
2021-12-03T01:53:32,42.805,6.029,CST-1368DR,5048,6563,13901,0.465,551
2021-12-03T01:56:34,42.805,6.029,CST-1368DR,5048,6563,13901,0.465,551
2021-12-03T01:59:36,42.805,6.029,CST-1368DR,5048,6563,13902,0.465,551
2021-12-03T02:02:37,42.805,6.029,CST-1368DR,5048,6563,13901,0.465,551
2021-12-03T02:05:39,42.805,6.029,CST-1368DR,5048,6562,13900,0.466,551
2021-12-03T02:08:40,42.805,6.029,CST-1368DR,5048,6563,13901,0.465,551
2021-12-03T02:11:42,42.805,6.029,CST-1368DR,5048,6563,13901,0.465,551
2021-12-03T02:14:44,42.805,6.029,CST-1368DR,5048,6563,13901,0.465,551
2021-12-03T02:17:45,42.805,6.029,CST-1368DR,5048,6562,13900,0.466,551
2021-12-03T02:20:47,42.805,6.029,CST-1368DR,5048,6562,13900,0.466,551
2021-12-03T02:23:48,42.805,6.029,CST-1368DR,5048,6561,13898,0.466,551
2021-12-03T02:26:50,42.805,6.029,CST-1368DR,5048,6563,13901,0.465,551
2021-12-03T02:29:51,42.805,6.029,CST-1368DR,5048,6563,13901,0.465,551
2021-12-03T02:32:53,42.805,6.029,CST-1368DR,5048,6562,13900,0.466,551
2021-12-03T02:35:55,42.805,6.029,CST-1368DR,5048,6563,13901,0.465,551
2021-12-03T02:38:56,42.805,6.029,CST-1368DR,5048,6563,13901,0.465,551
2021-12-03T02:41:58,42.805,6.029,CST-1368DR,5048,6563,13902,0.465,551
2021-12-03T02:44:59,42.805,6.029,CST-1368DR,5048,6563,13901,0.465,550
2021-12-03T02:48:01,42.805,6.029,CST-1368DR,5048,6562,13900,0.466,551
2021-12-03T02:51:03,42.805,6.029,CST-1368DR,5048,6563,13901,0.465,551
2021-12-03T02:54:04,42.805,6.029,CST-1368DR,5048,6563,13901,0.465,551
2021-12-03T02:57:06,42.805,6.029,CST-1368DR,5048,6562,13900,0.466,551
2021-12-03T03:00:07,42.805,6.029,CST-1368DR,5048,6563,13901,0.465,551
2021-12-03T03:03:09,42.805,6.029,CST-1368DR,5048,6563,13901,0.465,551
2021-12-03T03:06:10,42.805,6.029,CST-1368DR,5048,6562,13900,0.466,551
2021-12-03T03:09:12,42.805,6.029,CST-1368DR,5048,6562,13899,0.466,551
2021-12-03T03:12:14,42.805,6.029,CST-1368DR,5048,6562,13898,0.466,551
2021-12-03T03:15:15,42.805,6.029,CST-1368DR,5048,6562,13900,0.466,551
2021-12-03T03:18:17,42.805,6.029,CST-1368DR,5048,6563,13901,0.465,551
2021-12-03T03:21:18,42.805,6.029,CST-1368DR,5048,6562,13900,0.466,551
2021-12-03T03:24:20,42.805,6.029,CST-1368DR,5048,6562,13899,0.466,551
2021-12-03T03:27:21,42.805,6.029,CST-1368DR,5048,6561,13898,0.466,551
2021-12-03T03:30:23,42.805,6.029,CST-1368DR,5048,6562,13900,0.466,551
2021-12-03T03:33:25,42.805,6.029,CST-1368DR,5048,6562,13899,0.466,551
2021-12-03T03:36:26,42.805,6.029,CST-1368DR,5048,6562,13900,0.466,550
2021-12-03T03:39:28,42.805,6.029,CST-1368DR,5048,6562,13900,0.466,551
2021-12-03T03:42:29,42.805,6.029,CST-1368DR,5048,6562,13900,0.466,551
2021-12-03T03:45:31,42.805,6.029,CST-1368DR,5048,6562,13900,0.466,551
2021-12-03T03:48:33,42.805,6.029,CST-1368DR,5048,6562,13898,0.466,551
2021-12-03T03:51:34,42.805,6.029,CST-1368DR,5048,6562,13900,0.466,551
2021-12-03T03:54:36,42.805,6.029,CST-1368DR,5048,6562,13899,0.466,551
2021-12-03T03:57:37,42.805,6.029,CST-1368DR,5048,6562,13899,0.466,551
2021-12-03T04:00:39,42.805,6.029,CST-1368DR,5048,6562,13900,0.466,551
2021-12-03T04:03:40,42.805,6.029,CST-1368DR,5048,6562,13900,0.466,551
2021-12-03T04:06:42,42.805,6.029,CST-1368DR,5048,6562,13899,0.466,550
2021-12-03T04:09:44,42.805,6.029,CST-1368DR,5048,6562,13898,0.466,551
2021-12-03T04:12:45,42.805,6.029,CST-1368DR,5048,6562,13900,0.466,551
2021-12-03T04:15:47,42.805,6.029,CST-1368DR,5048,6562,13899,0.466,551
2021-12-03T04:18:48,42.805,6.029,CST-1368DR,5048,6562,13899,0.466,551
2021-12-03T04:21:50,42.805,6.029,CST-1368DR,5048,6562,13900,0.466,551
2021-12-03T04:24:52,42.805,6.029,CST-1368DR,5048,6562,13898,0.466,551
2021-12-03T04:27:53,42.805,6.029,CST-1368DR,5048,6562,13899,0.466,551
2021-12-03T04:30:55,42.805,6.029,CST-1368DR,5048,6561,13896,0.467,551
2021-12-03T04:33:56,42.805,6.029,CST-1368DR,5048,6562,13899,0.466,551
2021-12-03T04:36:58,42.805,6.029,CST-1368DR,5048,6562,13900,0.466,551
2021-12-03T04:39:59,42.805,6.029,CST-1368DR,5048,6562,13899,0.466,551
2021-12-03T04:43:01,42.805,6.029,CST-1368DR,5048,6562,13900,0.466,551
2021-12-03T04:46:03,42.805,6.029,CST-1368DR,5048,6562,13900,0.466,551
2021-12-03T04:49:04,42.805,6.029,CST-1368DR,5048,6562,13898,0.466,551
2021-12-03T04:52:06,42.805,6.029,CST-1368DR,5048,6562,13900,0.466,551
2021-12-03T04:55:07,42.805,6.029,CST-1368DR,5048,6562,13898,0.466,551
2021-12-03T04:58:09,42.805,6.029,CST-1368DR,5048,6562,13898,0.466,551
2021-12-03T05:01:10,42.805,6.029,CST-1368DR,5048,6562,13898,0.466,551
2021-12-03T05:04:12,42.805,6.029,CST-1368DR,5048,6562,13898,0.466,551
2021-12-03T05:07:14,42.805,6.029,CST-1368DR,5048,6560,13895,0.467,551
2021-12-03T05:10:15,42.805,6.029,CST-1368DR,5048,6562,13900,0.466,551
2021-12-03T05:13:17,42.805,6.029,CST-1368DR,5048,6562,13900,0.466,551
2021-12-03T05:16:18,42.805,6.029,CST-1368DR,5048,6561,13897,0.466,551
2021-12-03T05:19:20,42.805,6.029,CST-1368DR,5048,6560,13895,0.467,551
2021-12-03T05:22:22,42.805,6.029,CST-1368DR,5048,6562,13900,0.466,551
2021-12-03T05:25:23,42.805,6.029,CST-1368DR,5048,6562,13900,0.466,551
2021-12-03T05:28:25,42.805,6.029,CST-1368DR,5048,6562,13899,0.466,551
2021-12-03T05:31:26,42.805,6.029,CST-1368DR,5048,6561,13898,0.466,551
2021-12-03T05:34:28,42.805,6.029,CST-1368DR,5048,6562,13899,0.466,551
2021-12-03T05:37:29,42.805,6.029,CST-1368DR,5048,6562,13899,0.466,551
2021-12-03T05:40:31,42.805,6.029,CST-1368DR,5048,6561,13898,0.466,551
2021-12-03T05:43:33,42.805,6.029,CST-1368DR,5048,6562,13900,0.466,551
2021-12-03T05:46:34,42.805,6.029,CST-1368DR,5048,6562,13899,0.466,551
2021-12-03T05:49:36,42.805,6.029,CST-1368DR,5048,6561,13897,0.466,551
2021-12-03T05:52:37,42.805,6.029,CST-1368DR,5048,6562,13898,0.466,551
2021-12-03T05:55:39,42.805,6.029,CST-1368DR,5048,6562,13899,0.466,551
2021-12-03T05:58:41,42.805,6.029,CST-1368DR,5048,6561,13897,0.466,551
2021-12-03T06:01:42,42.805,6.029,CST-1368DR,5048,6561,13898,0.466,551
2021-12-03T06:04:44,42.805,6.029,CST-1368DR,5048,6562,13898,0.466,551
2021-12-03T06:07:45,42.805,6.029,CST-1368DR,5048,6561,13896,0.467,551
2021-12-03T06:10:47,42.805,6.029,CST-1368DR,5048,6561,13896,0.467,551
2021-12-03T06:13:48,42.805,6.029,CST-1368DR,5048,6561,13898,0.466,551
2021-12-03T06:16:50,42.805,6.029,CST-1368DR,5048,6561,13898,0.466,551
2021-12-03T06:19:52,42.805,6.029,CST-1368DR,5048,6562,13898,0.466,551
2021-12-03T06:22:53,42.805,6.029,CST-1368DR,5048,6562,13898,0.466,551
2021-12-03T06:25:55,42.805,6.029,CST-1368DR,5048,6561,13898,0.466,551
2021-12-03T06:28:56,42.805,6.029,CST-1368DR,5048,6561,13897,0.466,551
2021-12-03T06:31:58,42.805,6.029,CST-1368DR,5048,6562,13898,0.466,551
2021-12-03T06:35:00,42.805,6.029,CST-1368DR,5048,6561,13897,0.466,551
2021-12-03T06:38:01,42.805,6.029,CST-1368DR,5047,6561,13900,0.466,551
2021-12-03T06:41:03,42.805,6.029,CST-1368DR,5047,6561,13900,0.466,551
2021-12-03T06:44:04,42.805,6.029,CST-1368DR,5048,6561,13897,0.466,551
2021-12-03T06:47:06,42.805,6.029,CST-1368DR,5048,6561,13896,0.467,551
2021-12-03T06:50:07,42.805,6.029,CST-1368DR,5048,6561,13897,0.466,551
2021-12-03T06:53:09,42.805,6.029,CST-1368DR,5048,6561,13897,0.466,551
2021-12-03T06:56:11,42.805,6.029,CST-1368DR,5048,6561,13896,0.467,551
2021-12-03T06:59:12,42.805,6.029,CST-1368DR,5048,6561,13897,0.466,551
2021-12-03T07:02:14,42.805,6.029,CST-1368DR,5048,6561,13897,0.466,551
2021-12-03T07:05:15,42.805,6.029,CST-1368DR,5048,6561,13897,0.466,551
2021-12-03T07:08:17,42.805,6.029,CST-1368DR,5047,6561,13899,0.466,551
2021-12-03T07:11:19,42.805,6.029,CST-1368DR,5048,6561,13897,0.466,551
2021-12-03T07:14:20,42.805,6.029,CST-1368DR,5048,6560,13894,0.467,551
2021-12-03T07:17:22,42.805,6.029,CST-1368DR,5048,6561,13896,0.467,551
2021-12-03T07:20:23,42.805,6.029,CST-1368DR,5048,6561,13896,0.467,551
2021-12-03T07:23:25,42.805,6.029,CST-1368DR,5048,6560,13895,0.467,551
2021-12-03T07:26:26,42.805,6.029,CST-1368DR,5048,6561,13897,0.466,551
2021-12-03T07:29:28,42.805,6.029,CST-1368DR,5048,6561,13897,0.466,551
2021-12-03T07:32:30,42.805,6.029,CST-1368DR,5048,6561,13896,0.467,551
2021-12-03T07:35:31,42.805,6.029,CST-1368DR,5047,6561,13900,0.466,551
2021-12-03T07:38:33,42.805,6.029,CST-1368DR,5048,6561,13896,0.467,551
2021-12-03T07:41:34,42.805,6.029,CST-1368DR,5047,6561,13899,0.466,551
2021-12-03T07:44:36,42.805,6.029,CST-1368DR,5047,6560,13897,0.466,551
2021-12-03T07:47:37,42.805,6.029,CST-1368DR,5047,6561,13900,0.466,551
2021-12-03T07:50:39,42.805,6.029,CST-1368DR,5047,6560,13898,0.466,551
2021-12-03T07:53:41,42.805,6.029,CST-1368DR,5047,6561,13899,0.466,551
2021-12-03T07:56:42,42.805,6.029,CST-1368DR,5047,6560,13897,0.466,551
2021-12-03T07:59:44,42.805,6.029,CST-1368DR,5047,6560,13898,0.466,551
2021-12-03T08:02:45,42.805,6.029,CST-1368DR,5047,6559,13896,0.467,551
2021-12-03T08:05:47,42.805,6.029,CST-1368DR,5047,6561,13900,0.466,551
2021-12-03T08:08:49,42.805,6.029,CST-1368DR,5047,6559,13895,0.467,551
2021-12-03T08:11:50,42.805,6.029,CST-1368DR,5047,6561,13899,0.466,551
2021-12-03T08:14:52,42.805,6.029,CST-1368DR,5047,6561,13899,0.466,551
2021-12-03T08:17:53,42.805,6.029,CST-1368DR,5047,6558,13894,0.467,551
2021-12-03T08:20:55,42.805,6.029,CST-1368DR,5047,6560,13897,0.466,551
2021-12-03T08:23:56,42.805,6.029,CST-1368DR,5047,6560,13897,0.466,551
2021-12-03T08:26:58,42.805,6.029,CST-1368DR,5047,6559,13895,0.467,551
2021-12-03T08:30:00,42.805,6.029,CST-1368DR,5047,6559,13896,0.467,551
2021-12-03T08:33:01,42.805,6.029,CST-1368DR,5047,6560,13897,0.466,551
2021-12-03T08:36:03,42.805,6.029,CST-1368DR,5047,6560,13898,0.466,551
2021-12-03T08:39:04,42.805,6.029,CST-1368DR,5047,6561,13899,0.466,551
2021-12-03T08:42:06,42.805,6.029,CST-1368DR,5047,6560,13898,0.466,551
2021-12-03T08:45:08,42.805,6.029,CST-1368DR,5047,6560,13898,0.466,551
2021-12-03T08:48:09,42.805,6.029,CST-1368DR,5047,6559,13895,0.467,551
2021-12-03T08:51:11,42.805,6.029,CST-1368DR,5047,6559,13895,0.467,551
2021-12-03T08:54:12,42.805,6.029,CST-1368DR,5047,6560,13897,0.466,551
2021-12-03T08:57:14,42.805,6.029,CST-1368DR,5047,6560,13898,0.466,551
2021-12-03T09:00:15,42.805,6.029,CST-1368DR,5047,6560,13897,0.466,551
2021-12-03T09:03:17,42.805,6.029,CST-1368DR,5047,6561,13899,0.466,551
2021-12-03T09:06:19,42.805,6.029,CST-1368DR,5047,6560,13898,0.466,551
2021-12-03T09:09:20,42.805,6.029,CST-1368DR,5047,6560,13898,0.466,551
2021-12-03T09:12:22,42.805,6.029,CST-1368DR,5047,6559,13896,0.467,551
2021-12-03T09:15:23,42.805,6.029,CST-1368DR,5047,6560,13898,0.466,551
2021-12-03T09:18:25,42.805,6.029,CST-1368DR,5047,6560,13897,0.466,551
2021-12-03T09:21:27,42.805,6.029,CST-1368DR,5047,6560,13898,0.466,551
2021-12-03T09:24:28,42.805,6.029,CST-1368DR,5047,6560,13898,0.466,551
2021-12-03T09:27:30,42.805,6.029,CST-1368DR,5047,6560,13898,0.466,551
2021-12-03T09:30:31,42.805,6.029,CST-1368DR,5047,6560,13898,0.466,551
2021-12-03T09:33:33,42.805,6.029,CST-1368DR,5047,6560,13897,0.466,551
2021-12-03T09:36:34,42.805,6.029,CST-1368DR,5047,6560,13897,0.466,551
2021-12-03T09:39:36,42.805,6.029,CST-1368DR,5047,6559,13896,0.467,551
2021-12-03T09:42:38,42.805,6.029,CST-1368DR,5047,6560,13897,0.466,551
2021-12-03T09:45:39,42.805,6.029,CST-1368DR,5047,6559,13896,0.467,551
2021-12-03T09:48:41,42.805,6.029,CST-1368DR,5047,6559,13896,0.467,551
2021-12-03T09:51:42,42.805,6.029,CST-1368DR,5047,6560,13897,0.466,551
2021-12-03T09:54:44,42.805,6.029,CST-1368DR,5047,6531,13836,0.484,551
2021-12-03T09:57:45,42.805,6.029,CST-1368DR,5047,6531,13836,0.484,551
2021-12-03T10:00:47,42.805,6.029,CST-1368DR,5047,6534,13842,0.482,551
2021-12-03T10:03:49,42.805,6.029,CST-1368DR,5047,6531,13836,0.484,551
2021-12-03T10:06:50,42.805,6.029,CST-1368DR,5047,6531,13836,0.484,551
2021-12-03T10:09:52,42.805,6.029,CST-1368DR,5047,6533,13841,0.483,551
2021-12-03T10:12:53,42.805,6.029,CST-1368DR,5047,6531,13836,0.484,551
2021-12-03T10:15:55,42.805,6.029,CST-1368DR,5047,6533,13841,0.483,551
2021-12-03T10:18:57,42.805,6.029,CST-1368DR,5047,6534,13842,0.482,551
2021-12-03T10:21:58,42.805,6.029,CST-1368DR,5047,6532,13838,0.484,551
2021-12-03T10:25:00,42.805,6.029,CST-1368DR,5047,6531,13837,0.484,551
2021-12-03T10:28:01,42.805,6.029,CST-1368DR,5047,6534,13842,0.482,551
2021-12-03T10:31:03,42.805,6.029,CST-1368DR,5047,6533,13840,0.483,551
2021-12-03T10:34:04,42.805,6.029,CST-1368DR,5047,6533,13840,0.483,551
2021-12-03T10:37:06,42.805,6.029,CST-1368DR,5047,6535,13844,0.482,551
2021-12-03T10:40:08,42.805,6.029,CST-1368DR,5047,6534,13843,0.482,551
2021-12-03T10:43:09,42.805,6.029,CST-1368DR,5047,6532,13839,0.483,551
2021-12-03T10:46:11,42.805,6.029,CST-1368DR,5047,6533,13840,0.483,551
2021-12-03T10:49:12,42.805,6.029,CST-1368DR,5047,6533,13840,0.483,551
2021-12-03T10:52:14,42.805,6.029,CST-1368DR,5047,6533,13840,0.483,551
2021-12-03T10:55:16,42.805,6.029,CST-1368DR,5047,6531,13835,0.484,551
2021-12-03T10:58:17,42.805,6.029,CST-1368DR,5047,6530,13834,0.485,550
2021-12-03T11:01:19,42.805,6.029,CST-1368DR,5047,6532,13839,0.483,551
2021-12-03T11:04:20,42.805,6.029,CST-1368DR,5047,6532,13839,0.483,551
2021-12-03T11:07:22,42.805,6.029,CST-1368DR,5047,6533,13841,0.483,551
2021-12-03T11:10:23,42.805,6.029,CST-1368DR,5047,6532,13839,0.483,551
2021-12-03T11:13:25,42.805,6.029,CST-1368DR,5047,6533,13841,0.483,551
2021-12-03T11:16:27,42.805,6.029,CST-1368DR,5047,6532,13838,0.484,551
2021-12-03T11:19:28,42.805,6.029,CST-1368DR,5047,6533,13841,0.483,551
2021-12-03T11:22:30,42.805,6.029,CST-1368DR,5047,6533,13840,0.483,551
2021-12-03T11:25:31,42.805,6.029,CST-1368DR,5047,6532,13838,0.484,551
2021-12-03T11:28:33,42.805,6.029,CST-1368DR,5047,6532,13838,0.484,551
2021-12-03T11:31:34,42.805,6.029,CST-1368DR,5047,6531,13835,0.484,551
2021-12-03T11:34:36,42.805,6.029,CST-1368DR,5047,6532,13839,0.483,551
2021-12-03T11:37:38,42.805,6.029,CST-1368DR,5047,6532,13839,0.483,551
2021-12-03T11:40:39,42.805,6.029,CST-1368DR,5047,6532,13838,0.484,551
2021-12-03T11:43:41,42.805,6.029,CST-1368DR,5047,6531,13837,0.484,551
2021-12-03T11:46:42,42.805,6.029,CST-1368DR,5047,6531,13836,0.484,551
2021-12-03T11:49:44,42.805,6.029,CST-1368DR,5047,6534,13842,0.482,551
2021-12-03T11:52:46,42.805,6.029,CST-1368DR,5047,6532,13839,0.483,551
2021-12-03T11:55:47,42.805,6.029,CST-1368DR,5047,6531,13836,0.484,551
2021-12-03T11:58:49,42.805,6.029,CST-1368DR,5047,6532,13839,0.483,551
2021-12-03T12:01:50,42.805,6.029,CST-1368DR,5047,6533,13840,0.483,551
2021-12-03T12:04:52,42.805,6.029,CST-1368DR,5047,6534,13843,0.482,551
2021-12-03T12:07:53,42.805,6.029,CST-1368DR,5047,6533,13841,0.483,551
2021-12-03T12:10:55,42.805,6.029,CST-1368DR,5047,6531,13836,0.484,551
2021-12-03T12:13:57,42.805,6.029,CST-1368DR,5047,6532,13839,0.483,551
2021-12-03T12:16:58,42.805,6.029,CST-1368DR,5047,6532,13839,0.483,551
2021-12-03T12:20:00,42.805,6.029,CST-1368DR,5047,6533,13841,0.483,551
2021-12-03T12:23:01,42.805,6.029,CST-1368DR,5047,6528,13831,0.486,551
2021-12-03T12:26:03,42.805,6.029,CST-1368DR,5047,6532,13838,0.484,551
2021-12-03T12:29:05,42.805,6.029,CST-1368DR,5047,6531,13835,0.484,551
2021-12-03T12:32:06,42.805,6.029,CST-1368DR,5047,6531,13836,0.484,551
2021-12-03T12:35:08,42.805,6.029,CST-1368DR,5047,6531,13836,0.484,551
2021-12-03T12:38:09,42.805,6.029,CST-1368DR,5047,6531,13837,0.484,551
2021-12-03T12:41:11,42.805,6.029,CST-1368DR,5047,6532,13839,0.483,551
2021-12-03T12:44:12,42.805,6.029,CST-1368DR,5047,6532,13839,0.483,551
2021-12-03T12:47:14,42.805,6.029,CST-1368DR,5047,6530,13834,0.485,551
2021-12-03T12:50:16,42.805,6.029,CST-1368DR,5047,6529,13831,0.486,551
2021-12-03T12:53:17,42.805,6.029,CST-1368DR,5047,6530,13834,0.485,551
2021-12-03T12:56:19,42.805,6.029,CST-1368DR,5047,6531,13836,0.484,551
2021-12-03T12:59:20,42.805,6.029,CST-1368DR,5047,6531,13836,0.484,551
2021-12-03T13:02:22,42.805,6.029,CST-1368DR,5047,6531,13836,0.484,551
2021-12-03T13:05:23,42.805,6.029,CST-1368DR,5047,6533,13840,0.483,551
2021-12-03T13:08:25,42.805,6.029,CST-1368DR,5047,6533,13840,0.483,551
2021-12-03T13:11:27,42.805,6.029,CST-1368DR,5047,6532,13838,0.484,551
2021-12-03T13:14:28,42.805,6.029,CST-1368DR,5047,6533,13840,0.483,551
2021-12-03T13:17:30,42.805,6.029,CST-1368DR,5047,6531,13836,0.484,551
2021-12-03T13:20:31,42.805,6.029,CST-1368DR,5047,6531,13837,0.484,551
2021-12-03T13:23:33,42.805,6.029,CST-1368DR,5047,6535,13844,0.482,551
2021-12-03T13:26:35,42.805,6.029,CST-1368DR,5047,6532,13838,0.484,551
2021-12-03T13:29:36,42.805,6.029,CST-1368DR,5047,6531,13837,0.484,551
2021-12-03T13:32:38,42.805,6.029,CST-1368DR,5047,6530,13835,0.484,551
2021-12-03T13:35:39,42.805,6.029,CST-1368DR,5047,6531,13835,0.484,551
2021-12-03T13:38:41,42.805,6.029,CST-1368DR,5047,6532,13838,0.484,551
2021-12-03T13:41:42,42.805,6.029,CST-1368DR,5047,6531,13837,0.484,551
2021-12-03T13:44:44,42.805,6.029,CST-1368DR,5047,6532,13838,0.484,551
2021-12-03T13:47:46,42.805,6.029,CST-1368DR,5047,6533,13840,0.483,551
2021-12-03T13:50:47,42.805,6.029,CST-1368DR,5047,6538,13850,0.480,551
2021-12-03T13:53:49,42.805,6.029,CST-1368DR,5047,6530,13834,0.485,551
2021-12-03T13:56:50,42.805,6.029,CST-1368DR,5047,6530,13833,0.485,551
2021-12-03T13:59:52,42.805,6.029,CST-1368DR,5047,6530,13835,0.484,551
2021-12-03T14:02:54,42.805,6.029,CST-1368DR,5047,6531,13835,0.484,551
2021-12-03T14:05:55,42.805,6.029,CST-1368DR,5047,6530,13833,0.485,551
2021-12-03T14:08:57,42.805,6.029,CST-1368DR,5047,6531,13836,0.484,551
2021-12-03T14:11:58,42.805,6.029,CST-1368DR,5047,6531,13837,0.484,551
2021-12-03T14:15:00,42.805,6.029,CST-1368DR,5047,6536,13848,0.481,551
2021-12-03T14:18:01,42.805,6.029,CST-1368DR,5047,6532,13839,0.483,551
2021-12-03T14:21:03,42.805,6.029,CST-1368DR,5047,6532,13838,0.484,551
2021-12-03T14:24:05,42.805,6.029,CST-1368DR,5047,6533,13840,0.483,551
2021-12-03T14:27:06,42.805,6.029,CST-1368DR,5047,6533,13841,0.483,551
2021-12-03T14:30:08,42.805,6.029,CST-1368DR,5047,6532,13838,0.484,551
2021-12-03T14:33:09,42.805,6.029,CST-1368DR,5047,6531,13836,0.484,551
2021-12-03T14:36:11,42.805,6.029,CST-1368DR,5047,6532,13838,0.484,551
2021-12-03T14:39:12,42.805,6.029,CST-1368DR,5047,6531,13836,0.484,551
2021-12-03T14:42:14,42.805,6.029,CST-1368DR,5047,6533,13840,0.483,551
2021-12-03T14:45:16,42.805,6.029,CST-1368DR,5047,6534,13842,0.482,551
2021-12-03T14:48:17,42.805,6.029,CST-1368DR,5047,6531,13835,0.484,551
2021-12-03T14:51:19,42.805,6.029,CST-1368DR,5046,6532,13842,0.482,551
2021-12-03T14:54:20,42.805,6.029,CST-1368DR,5046,6531,13839,0.483,551
2021-12-03T14:57:22,42.805,6.029,CST-1368DR,5046,6530,13837,0.484,551
2021-12-03T15:00:24,42.805,6.029,CST-1368DR,5047,6531,13837,0.484,551
2021-12-03T15:03:25,42.805,6.029,CST-1368DR,5047,6536,13846,0.481,551
2021-12-03T15:06:27,42.805,6.029,CST-1368DR,5046,6530,13836,0.484,551
2021-12-03T15:09:28,42.805,6.029,CST-1368DR,5047,6531,13836,0.484,551
2021-12-03T15:12:30,42.805,6.029,CST-1368DR,5047,6532,13839,0.483,551
2021-12-03T15:15:31,42.805,6.029,CST-1368DR,5047,6531,13836,0.484,551
2021-12-03T15:18:33,42.805,6.029,CST-1368DR,5046,6532,13841,0.483,551
2021-12-03T15:21:35,42.805,6.029,CST-1368DR,5046,6531,13839,0.483,551
2021-12-03T15:24:36,42.805,6.029,CST-1368DR,5046,6533,13843,0.482,551
2021-12-03T15:27:38,42.805,6.029,CST-1368DR,5046,6533,13843,0.482,551
2021-12-03T15:30:39,42.805,6.029,CST-1368DR,5046,6531,13840,0.483,551
2021-12-03T15:33:41,42.805,6.029,CST-1368DR,5046,6532,13841,0.483,551
2021-12-03T15:36:43,42.805,6.029,CST-1368DR,5047,6532,13839,0.483,551
2021-12-03T15:39:44,42.805,6.029,CST-1368DR,5046,6531,13839,0.483,551
2021-12-03T15:42:46,42.805,6.029,CST-1368DR,5046,6532,13841,0.483,551
2021-12-03T15:45:47,42.805,6.029,CST-1368DR,5046,6532,13841,0.483,551
2021-12-03T15:48:49,42.805,6.029,CST-1368DR,5046,6536,13850,0.480,551
2021-12-03T15:51:50,42.805,6.029,CST-1368DR,5046,6532,13842,0.482,551
2021-12-03T15:54:52,42.805,6.029,CST-1368DR,5046,6531,13839,0.483,551
2021-12-03T15:57:54,42.805,6.029,CST-1368DR,5046,6530,13837,0.484,551
2021-12-03T16:00:55,42.805,6.029,CST-1368DR,5046,6530,13836,0.484,551
2021-12-03T16:03:57,42.805,6.029,CST-1368DR,5046,6533,13842,0.482,551
2021-12-03T16:06:58,42.805,6.029,CST-1368DR,5046,6533,13843,0.482,551
2021-12-03T16:10:00,42.805,6.029,CST-1368DR,5046,6530,13837,0.484,551
2021-12-03T16:13:02,42.805,6.029,CST-1368DR,5046,6531,13840,0.483,551
2021-12-03T16:16:03,42.805,6.029,CST-1368DR,5046,6532,13841,0.483,551
2021-12-03T16:19:05,42.805,6.029,CST-1368DR,5046,6531,13838,0.484,551
2021-12-03T16:22:06,42.805,6.029,CST-1368DR,5046,6532,13841,0.483,551
2021-12-03T16:25:08,42.805,6.029,CST-1368DR,5046,6531,13839,0.483,551
2021-12-03T16:28:09,42.805,6.029,CST-1368DR,5046,6532,13842,0.482,551
2021-12-03T16:31:11,42.805,6.029,CST-1368DR,5046,6531,13839,0.483,551
2021-12-03T16:34:13,42.805,6.029,CST-1368DR,5046,6532,13842,0.482,551
2021-12-03T16:37:14,42.805,6.029,CST-1368DR,5046,6532,13841,0.483,551
2021-12-03T16:40:16,42.805,6.029,CST-1368DR,5047,6532,13838,0.484,551
2021-12-03T16:43:17,42.805,6.029,CST-1368DR,5046,6532,13841,0.483,551
2021-12-03T16:46:19,42.805,6.029,CST-1368DR,5046,6531,13839,0.483,551
2021-12-03T16:49:20,42.805,6.029,CST-1368DR,5046,6530,13837,0.484,551
2021-12-03T16:52:22,42.805,6.029,CST-1368DR,5046,6531,13840,0.483,551